FW7539 Weather Reports


Display with metric or nautical units.
time (UTC)temp
F
wind
direction
speed
MPH
gust
MPH
rain 1hr
in
rain 24hr
in
rain mn
in
humidity
%
barometer
mb
20260510130518 60 4 2.0 8.0 0.00 0.01 0.01 69 1014.9
20260510130019 59 20 2.0 6.0 0.00 0.01 0.01 71 1014.9
20260510125457 59 21 2.0 8.0 0.00 0.01 0.01 71 1014.8
20260510125018 59 6 3.0 8.0 0.00 0.01 0.01 73 1014.7
20260510124457 59 3 3.0 8.0 0.00 0.01 0.01 72 1014.6
20260510123958 58 4 2.0 5.0 0.00 0.01 0.01 72 1014.6
20260510123457 58 8 2.0 5.0 0.00 0.01 0.01 74 1014.5
20260510122957 58 12 2.0 5.0 0.00 0.01 0.01 74 1014.4
20260510122458 58 8 2.0 6.0 0.00 0.01 0.01 74 1014.3
20260510121957 58 10 2.0 6.0 0.00 0.01 0.01 75 1014.2
20260510121457 57 8 2.0 6.0 0.00 0.01 0.01 78 1014.1
20260510120958 57 7 2.0 6.0 0.00 0.01 0.01 78 1014.0
20260510120457 56 20 1.0 5.0 0.00 0.02 0.01 79 1013.9
20260510115957 56 27 1.0 4.0 0.00 0.02 0.01 79 1013.8
20260510115458 56 22 1.0 4.0 0.01 0.02 0.01 79 1013.7
20260510114957 56 15 1.0 3.0 0.01 0.02 0.01 80 1013.6
20260510114457 56 19 1.0 3.0 0.01 0.02 0.01 80 1013.6
20260510113957 56 13 1.0 4.0 0.01 0.02 0.01 80 1013.5
20260510113458 56 17 1.0 4.0 0.01 0.02 0.01 81 1013.5
20260510112957 56 22 1.0 4.0 0.01 0.02 0.01 80 1013.5
20260510112457 56 11 1.0 4.0 0.01 0.02 0.01 79 1013.4
20260510112018 56 13 1.0 4.0 0.01 0.02 0.01 79 1013.4
20260510111458 57 12 1.0 2.0 0.01 0.02 0.01 79 1013.4
20260510110957 57 354 0.0 2.0 0.01 0.02 0.01 78 1013.5
20260510110458 58 327 0.0 2.0 0.01 0.02 0.01 76 1013.7
20260510105958 58 356 1.0 6.0 0.01 0.02 0.01 75 1013.8
20260510105457 58 358 1.0 6.0 0.00 0.01 0.00 74 1013.6
20260510105019 58 342 1.0 3.0 0.00 0.01 0.00 74 1013.6
20260510104458 58 332 1.0 3.0 0.00 0.01 0.00 75 1013.5
20260510104018 58 332 1.0 5.0 0.00 0.01 0.00 75 1013.5
20260510103458 58 359 1.0 5.0 0.00 0.01 0.00 74 1013.4
20260510102958 58 17 1.0 4.0 0.00 0.01 0.00 75 1013.0
20260510102458 58 7 1.0 8.0 0.00 0.01 0.00 75 1012.8
20260510102018 59 3 2.0 8.0 0.00 0.01 0.00 77 1012.7
20260510101458 59 1 2.0 5.0 0.00 0.02 0.00 77 1012.5
20260510100958 59 355 2.0 5.0 0.00 0.02 0.00 77 1012.5
20260510100457 59 347 1.0 5.0 0.00 0.03 0.00 78 1012.4
20260510095957 59 336 1.0 7.0 0.00 0.03 0.00 80 1012.5
20260510095519 59 341 1.0 7.0 0.00 0.03 0.00 80 1012.3
20260510094958 58 321 1.0 4.0 0.00 0.04 0.00 82 1012.2
20260510094457 58 295 1.0 4.0 0.00 0.04 0.00 83 1012.2
20260510093957 57 310 0.0 4.0 0.00 0.05 0.00 85 1012.1
20260510093458 56 0 0.0 0.0 0.00 0.05 0.00 85 1012.0
20260510093019 56 0 0.0 0.0 0.00 0.05 0.00 85 1012.0
20260510092457 56 0 0.0 0.0 0.00 0.05 0.00 85 1012.1
20260510091958 56 0 0.0 0.0 0.00 0.05 0.00 85 1012.0
20260510091458 56 0 0.0 0.0 0.00 0.05 0.00 85 1011.8
20260510090957 56 0 0.0 0.0 0.00 0.05 0.00 84 1011.8
20260510090457 56 0 0.0 0.0 0.00 0.06 0.00 84 1011.8
20260510085958 56 36 0.0 1.0 0.00 0.06 0.00 84 1011.8
20260510085518 56 36 0.0 1.0 0.00 0.07 0.00 83 1011.6
20260510085018 56 36 0.0 1.0 0.00 0.07 0.00 83 1011.6
20260510084458 56 36 0.0 1.0 0.00 0.07 0.00 83 1011.6
20260510083958 56 36 0.0 1.0 0.00 0.07 0.00 82 1011.5
20260510083458 56 36 0.0 1.0 0.00 0.07 0.00 82 1011.5
20260510083019 57 36 0.0 1.0 0.00 0.07 0.00 81 1011.6
20260510082458 57 36 0.0 1.0 0.00 0.08 0.00 80 1011.5
20260510082018 57 36 0.0 1.0 0.00 0.08 0.00 80 1011.6
20260510081518 58 54 0.0 2.0 0.00 0.08 0.00 80 1011.6
20260510081018 58 28 1.0 3.0 0.00 0.09 0.00 79 1011.4
20260510080458 58 350 0.0 3.0 0.00 0.09 0.00 78 1011.2
20260510080019 58 342 0.0 1.0 0.00 0.09 0.00 78 1011.0
20260510075458 58 357 1.0 4.0 0.00 0.09 0.00 78 1011.0
20260510074958 58 357 1.0 5.0 0.00 0.09 0.00 78 1010.9
20260510074458 58 358 1.0 5.0 0.00 0.09 0.00 79 1010.8
20260510073958 58 355 0.0 5.0 0.00 0.10 0.00 79 1010.8
20260510073457 58 307 0.0 1.0 0.00 0.10 0.00 79 1010.5
20260510072957 58 307 0.0 1.0 0.00 0.10 0.00 79 1010.3
20260510072458 58 307 0.0 1.0 0.00 0.10 0.00 78 1010.4
20260510071958 58 307 0.0 2.0 0.00 0.10 0.00 78 1010.5
20260510071519 58 308 0.0 2.0 0.00 0.11 0.00 77 1010.5
20260510070958 58 311 0.0 1.0 0.00 0.11 0.00 77 1010.5
20260510070518 59 311 0.0 1.0 0.00 0.11 0.00 77 1010.5
20260510065957 59 300 0.0 1.0 0.00 0.11 0.00 77 1010.6
20260510065519 59 250 0.0 1.0 0.00 0.11 0.00 77 1010.7
20260510064958 59 0 0.0 0.0 0.00 0.11 0.00 76 1010.6
20260510064458 60 250 0.0 1.0 0.00 0.11 0.00 76 1010.5
20260510063957 60 250 0.0 1.0 0.00 0.11 0.00 75 1010.7
20260510063457 60 250 0.0 2.0 0.00 0.12 0.00 75 1010.7
20260510062957 60 252 0.0 2.0 0.00 0.12 0.00 75 1010.8
20260510062458 60 255 0.0 2.0 0.00 0.12 0.00 75 1010.8
20260510061957 60 244 0.0 2.0 0.00 0.12 0.00 75 1010.8
20260510061457 60 243 0.0 2.0 0.00 0.12 0.00 75 1010.8
20260510060958 60 254 0.0 1.0 0.00 0.13 0.00 76 1010.9
20260510060458 59 254 0.0 1.0 0.00 0.13 0.00 76 1010.9
20260510060018 59 254 0.0 2.0 0.00 0.13 0.00 76 1010.9
20260510055458 59 254 0.0 2.0 0.00 0.13 0.00 76 1010.9
20260510054958 59 254 0.0 2.0 0.00 0.13 0.00 77 1010.9
20260510054519 59 254 0.0 2.0 0.00 0.13 0.00 77 1010.9
20260510054019 59 253 0.0 1.0 0.00 0.13 0.00 77 1010.9
20260510053458 58 252 0.0 1.0 0.00 0.13 0.00 78 1010.9
20260510052958 58 252 0.0 1.0 0.00 0.13 0.00 78 1010.8
20260510052458 58 252 0.0 1.0 0.00 0.13 0.00 79 1010.8
20260510051957 58 252 0.0 1.0 0.00 0.13 0.00 79 1010.8
20260510051458 57 252 0.0 1.0 0.00 0.13 0.00 80 1010.9
20260510051019 57 252 0.0 1.0 0.00 0.13 0.00 81 1010.9
20260510050458 57 252 0.0 1.0 0.00 0.13 0.00 81 1010.9
20260510045958 57 252 0.0 1.0 0.00 0.13 0.00 81 1010.9
20260510045519 57 252 0.0 1.0 0.00 0.13 0.00 81 1010.9
20260510044958 57 252 0.0 1.0 0.00 0.13 0.00 81 1010.9
20260510044457 57 252 0.0 1.0 0.00 0.13 0.00 81 1011.0
20260510043958 58 252 0.0 1.0 0.00 0.14 0.00 81 1011.0
20260510043458 58 252 0.0 1.0 0.00 0.14 0.00 81 1011.1
20260510042958 58 252 0.0 1.0 0.00 0.14 0.00 81 1011.1
20260510042458 58 252 0.0 1.0 0.00 0.14 0.00 81 1011.0
20260510041957 58 252 0.0 1.0 0.00 0.14 0.00 80 1011.0
20260510041458 58 252 0.0 1.0 0.00 0.14 0.00 80 1010.9
20260510041019 58 252 0.0 1.0 0.00 0.14 0.00 80 1010.9
20260510040458 58 252 0.0 1.0 0.00 0.14 0.00 80 1011.0
20260510035958 58 252 0.0 1.0 0.00 0.14 0.00 79 1010.9
20260510035457 58 252 0.0 1.0 0.00 0.14 0.14 79 1011.0
20260510034958 58 252 0.0 1.0 0.00 0.14 0.14 79 1010.9
20260510034519 58 252 0.0 1.0 0.00 0.14 0.14 79 1010.8
20260510034019 58 252 0.0 1.0 0.00 0.14 0.14 79 1010.8
20260510033458 58 252 0.0 1.0 0.00 0.14 0.14 80 1010.8
20260510032958 58 252 0.0 1.0 0.00 0.14 0.14 78 1010.8
20260510032458 58 252 0.0 1.0 0.00 0.14 0.14 79 1010.8
20260510031958 59 252 0.0 1.0 0.00 0.14 0.14 79 1010.8
20260510031458 59 252 0.0 1.0 0.00 0.14 0.14 79 1010.8
20260510030958 59 252 0.0 1.0 0.00 0.14 0.14 79 1010.7
20260510030458 59 252 0.0 1.0 0.00 0.14 0.14 79 1010.7
20260510025958 59 252 0.0 1.0 0.00 0.14 0.14 78 1010.6
20260510025458 59 252 0.0 1.0 0.00 0.14 0.14 77 1010.6
20260510024958 59 252 0.0 1.0 0.00 0.14 0.14 77 1010.6
20260510024457 59 252 0.0 1.0 0.00 0.14 0.14 76 1010.5
20260510023957 60 252 0.0 1.0 0.00 0.14 0.14 77 1010.4
20260510023458 60 252 0.0 1.0 0.00 0.14 0.14 75 1010.4
20260510023018 60 252 0.0 1.0 0.00 0.14 0.14 75 1010.3
20260510022457 60 252 0.0 1.0 0.00 0.14 0.14 73 1010.2
20260510021958 60 252 0.0 1.0 0.00 0.14 0.14 73 1010.2
20260510021458 61 252 0.0 1.0 0.00 0.14 0.14 72 1010.2
20260510020957 61 252 0.0 1.0 0.00 0.14 0.14 73 1010.1
20260510020519 61 252 0.0 1.0 0.00 0.14 0.14 71 1010.1
20260510015958 62 252 0.0 1.0 0.00 0.14 0.14 71 1010.0
20260510015458 62 252 0.0 1.0 0.00 0.14 0.14 71 1009.9
20260510014958 62 252 0.0 1.0 0.00 0.14 0.14 70 1009.8
20260510014458 63 252 0.0 1.0 0.00 0.14 0.14 71 1009.7
20260510013957 63 252 0.0 1.0 0.00 0.14 0.14 69 1009.6
20260510013458 64 252 0.0 1.0 0.00 0.14 0.14 67 1009.5
20260510013019 64 252 0.0 1.0 0.00 0.14 0.14 65 1009.4
20260510012458 65 252 0.0 1.0 0.00 0.14 0.14 65 1009.4
20260510011958 65 252 0.0 1.0 0.00 0.14 0.14 62 1009.3
20260510011458 66 252 0.0 1.0 0.00 0.14 0.14 61 1009.3
20260510010958 66 252 0.0 1.0 0.00 0.14 0.14 60 1009.2
20260510010458 67 252 0.0 1.0 0.00 0.14 0.14 58 1009.1
20260510010019 68 252 0.0 1.0 0.00 0.14 0.14 58 1009.1
20260510005457 68 252 0.0 1.0 0.00 0.14 0.14 56 1009.0
20260510004958 69 252 0.0 1.0 0.00 0.14 0.14 55 1009.0
20260510004519 69 261 0.0 2.0 0.00 0.14 0.14 55 1008.8
20260510003958 70 253 0.0 2.0 0.00 0.14 0.14 53 1008.7
20260510003519 70 231 0.0 2.0 0.00 0.14 0.14 53 1008.7
20260510002958 70 229 1.0 2.0 0.00 0.14 0.14 52 1008.6
20260510002459 71 233 1.0 4.0 0.00 0.14 0.14 51 1008.5
20260510001958 71 231 1.0 4.0 0.00 0.14 0.14 51 1008.4
20260510001458 71 227 1.0 4.0 0.00 0.14 0.14 50 1008.4
20260510000958 72 233 1.0 4.0 0.00 0.14 0.14 50 1008.3
20260510000457 72 255 1.0 3.0 0.00 0.14 0.14 50 1008.2
20260510000019 72 273 1.0 3.0 0.00 0.14 0.14 50 1008.2
20260509235458 72 273 1.0 3.0 0.00 0.14 0.14 50 1008.1
20260509234957 73 260 1.0 4.0 0.00 0.14 0.14 50 1008.1
20260509234458 73 227 2.0 5.0 0.00 0.14 0.14 49 1007.9
20260509233958 73 212 2.0 6.0 0.00 0.14 0.14 48 1007.9
20260509233458 73 186 2.0 6.0 0.00 0.14 0.14 48 1008.0
20260509233019 74 205 2.0 11.0 0.00 0.14 0.14 46 1007.9
20260509232458 74 229 2.0 11.0 0.00 0.14 0.14 46 1007.9
20260509231958 74 228 2.0 7.0 0.00 0.14 0.14 46 1007.8
20260509231458 75 231 3.0 9.0 0.00 0.14 0.14 46 1007.8
20260509231019 75 230 3.0 10.0 0.00 0.14 0.14 45 1007.8
20260509230458 75 223 2.0 10.0 0.00 0.14 0.14 46 1007.8
20260509225958 75 189 3.0 10.0 0.00 0.14 0.14 47 1007.7
20260509225458 74 187 3.0 10.0 0.00 0.14 0.14 47 1007.7
20260509224958 75 174 3.0 10.0 0.00 0.14 0.14 47 1007.8
20260509224459 75 168 2.0 7.0 0.00 0.14 0.14 47 1007.7
20260509223958 75 198 2.0 9.0 0.00 0.14 0.14 47 1007.8
20260509223458 75 182 3.0 9.0 0.00 0.14 0.14 47 1007.7
20260509222958 75 163 3.0 8.0 0.00 0.14 0.14 48 1007.7
20260509222519 75 169 3.0 11.0 0.00 0.14 0.14 47 1007.6
20260509222019 75 193 2.0 11.0 0.00 0.14 0.14 46 1007.7
20260509221457 75 228 3.0 11.0 0.00 0.14 0.14 48 1007.7
20260509220958 75 181 3.0 11.0 0.00 0.14 0.14 48 1007.8
20260509220519 74 162 3.0 10.0 0.00 0.14 0.14 48 1007.7
20260509215958 75 179 3.0 13.0 0.00 0.14 0.14 49 1007.8
20260509215458 74 163 3.0 13.0 0.00 0.14 0.14 50 1007.7
20260509214958 74 153 3.0 9.0 0.00 0.14 0.14 48 1007.8
20260509214519 74 159 4.0 11.0 0.00 0.14 0.14 49 1007.9
20260509213958 74 168 4.0 11.0 0.00 0.14 0.14 49 1007.7
20260509213519 75 192 3.0 11.0 0.00 0.14 0.14 49 1007.9
20260509212958 75 202 3.0 11.0 0.00 0.14 0.14 50 1007.9
20260509212458 75 204 3.0 8.0 0.00 0.14 0.14 50 1007.8
20260509211958 75 174 3.0 8.0 0.00 0.14 0.14 52 1007.8
20260509211458 75 185 3.0 9.0 0.00 0.14 0.14 54 1007.9
20260509211019 75 204 3.0 9.0 0.00 0.14 0.14 51 1007.9
20260509210519 74 173 4.0 11.0 0.00 0.14 0.14 51 1007.9
20260509205958 74 158 4.0 11.0 0.00 0.14 0.14 50 1008.0
20260509205458 74 166 3.0 10.0 0.00 0.14 0.14 52 1007.9
20260509204958 74 170 3.0 14.0 0.00 0.14 0.14 53 1008.0
20260509204519 74 181 4.0 14.0 0.00 0.14 0.14 51 1008.1
20260509203959 74 187 3.0 10.0 0.00 0.14 0.14 52 1008.0
20260509203458 73 156 4.0 17.0 0.00 0.14 0.14 55 1008.1
20260509202958 73 166 5.0 17.0 0.00 0.14 0.14 52 1008.1
20260509202458 74 210 4.0 13.0 0.00 0.14 0.14 50 1008.1
20260509201958 74 207 3.0 8.0 0.00 0.14 0.14 52 1008.2
20260509201519 73 159 3.0 9.0 0.00 0.14 0.14 55 1008.2
20260509201019 73 152 3.0 10.0 0.00 0.14 0.14 53 1008.3
20260509200458 73 152 3.0 10.0 0.00 0.14 0.14 53 1008.5
20260509195958 73 165 3.0 9.0 0.00 0.14 0.14 52 1008.5
20260509195458 73 203 4.0 10.0 0.00 0.14 0.14 53 1008.6
20260509194958 73 212 4.0 11.0 0.00 0.14 0.14 52 1008.7
20260509194458 73 222 2.0 11.0 0.00 0.14 0.14 55 1008.7
20260509194019 73 229 3.0 10.0 0.00 0.14 0.14 55 1008.6
20260509193458 72 222 3.0 8.0 0.00 0.14 0.14 55 1008.7
20260509193019 72 216 3.0 10.0 0.00 0.14 0.14 55 1008.8
20260509192458 72 185 3.0 10.0 0.00 0.14 0.14 56 1008.8
20260509191958 71 153 3.0 10.0 0.00 0.14 0.14 58 1008.8
20260509191458 71 190 4.0 11.0 0.00 0.14 0.14 57 1008.9
20260509190958 71 225 3.0 11.0 0.00 0.14 0.14 59 1008.9
20260509190458 71 221 3.0 9.0 0.00 0.14 0.14 58 1009.0
20260509185958 71 227 3.0 10.0 0.00 0.14 0.14 58 1009.1
20260509185458 71 214 3.0 14.0 0.00 0.14 0.14 59 1009.2
20260509184959 70 208 3.0 14.0 0.00 0.14 0.14 60 1009.1
20260509184458 71 190 3.0 9.0 0.00 0.14 0.14 61 1009.1
20260509183958 70 178 3.0 9.0 0.00 0.14 0.14 62 1009.2
20260509183458 70 206 3.0 8.0 0.00 0.14 0.14 60 1009.2
20260509182958 70 225 3.0 8.0 0.00 0.14 0.14 61 1009.1
20260509182458 70 208 2.0 9.0 0.00 0.14 0.14 60 1009.2
20260509181958 70 223 2.0 9.0 0.00 0.14 0.14 66 1009.1
20260509181458 70 236 2.0 5.0 0.00 0.14 0.14 65 1009.2
20260509180958 70 235 2.0 6.0 0.00 0.14 0.14 63 1009.3
20260509180459 69 195 2.0 6.0 0.00 0.14 0.14 64 1009.3
20260509175958 69 169 3.0 10.0 0.00 0.14 0.14 65 1009.4
20260509175519 69 220 3.0 10.0 0.00 0.14 0.14 62 1009.3
20260509174958 69 216 3.0 10.0 0.00 0.14 0.14 62 1009.2
20260509174458 69 185 2.0 8.0 0.00 0.14 0.14 67 1009.1
20260509174020 68 172 3.0 8.0 0.00 0.14 0.14 67 1009.2
20260509173458 68 195 3.0 8.0 0.00 0.14 0.14 67 1009.3
20260509172958 68 216 2.0 8.0 0.00 0.14 0.14 66 1009.2
20260509172458 68 232 2.0 8.0 0.00 0.14 0.14 68 1009.3
20260509171958 68 221 2.0 7.0 0.00 0.14 0.14 68 1009.3
20260509171458 68 220 2.0 7.0 0.00 0.14 0.14 65 1009.4
20260509170958 68 204 2.0 8.0 0.00 0.14 0.14 66 1009.4
20260509170519 67 189 3.0 8.0 0.00 0.14 0.14 65 1009.4
20260509165958 67 165 3.0 9.0 0.00 0.14 0.14 67 1009.4
20260509165459 67 160 3.0 9.0 0.00 0.14 0.14 70 1009.4
20260509164958 66 163 2.0 9.0 0.00 0.14 0.14 69 1009.6
20260509164458 66 203 2.0 9.0 0.00 0.14 0.14 67 1009.6
20260509163959 66 251 2.0 9.0 0.00 0.14 0.14 67 1009.6
20260509163458 66 250 2.0 9.0 0.00 0.14 0.14 67 1009.6
20260509163020 65 249 2.0 6.0 0.00 0.14 0.14 69 1009.7
20260509162458 65 225 2.0 8.0 0.00 0.14 0.14 69 1009.8
20260509161958 66 207 2.0 8.0 0.00 0.14 0.14 68 1009.7
20260509161458 66 195 3.0 7.0 0.00 0.14 0.14 69 1009.6
20260509160958 66 202 2.0 7.0 0.00 0.14 0.14 70 1009.6
20260509160459 66 201 2.0 8.0 0.00 0.14 0.14 72 1009.5
20260509155958 66 170 2.0 8.0 0.00 0.14 0.14 71 1009.4
20260509155459 65 171 2.0 9.0 0.00 0.14 0.14 75 1009.3
20260509154958 65 206 2.0 9.0 0.00 0.14 0.14 75 1009.3
20260509154520 64 200 3.0 9.0 0.00 0.14 0.14 74 1009.2
20260509153958 64 153 3.0 8.0 0.00 0.14 0.14 73 1009.2
20260509153458 64 156 3.0 8.0 0.00 0.14 0.14 73 1009.2
20260509152958 65 198 2.0 5.0 0.00 0.14 0.14 75 1009.2
20260509152459 65 183 2.0 6.0 0.00 0.14 0.14 76 1009.2
20260509152019 65 166 3.0 7.0 0.00 0.14 0.14 75 1009.2
20260509151458 64 188 3.0 7.0 0.00 0.14 0.14 77 1009.1
20260509150959 64 163 3.0 10.0 0.00 0.14 0.14 78 1009.1
20260509150459 64 148 3.0 10.0 0.00 0.14 0.14 76 1009.1
20260509145958 64 156 2.0 7.0 0.00 0.14 0.14 79 1009.0
20260509145459 63 156 2.0 8.0 0.00 0.14 0.14 79 1009.0
20260509144958 62 149 3.0 8.0 0.00 0.14 0.14 81 1008.9
20260509144459 62 153 3.0 8.0 0.00 0.14 0.14 81 1008.9
20260509143958 62 150 2.0 6.0 0.00 0.14 0.14 84 1008.9
20260509143459 61 137 2.0 6.0 0.00 0.14 0.14 83 1008.9
20260509143019 61 143 2.0 7.0 0.00 0.14 0.14 85 1008.9
20260509142459 60 147 2.0 7.0 0.00 0.14 0.14 85 1008.9
20260509141958 60 156 2.0 7.0 0.00 0.14 0.14 85 1008.9
20260509141458 60 167 2.0 7.0 0.00 0.14 0.14 86 1008.9
20260509140959 59 150 2.0 8.0 0.00 0.14 0.14 88 1008.8
20260509140458 59 138 2.0 8.0 0.00 0.14 0.14 89 1008.9
20260509135958 58 138 2.0 4.0 0.00 0.14 0.14 89 1008.9
20260509135459 58 137 2.0 4.0 0.00 0.14 0.14 90 1008.9
20260509134958 57 132 2.0 5.0 0.00 0.14 0.14 89 1008.9
20260509134520 57 154 1.0 5.0 0.00 0.14 0.14 90 1008.9
20260509133958 57 183 1.0 3.0 0.00 0.14 0.14 89 1008.9
20260509133520 56 182 1.0 4.0 0.00 0.14 0.14 90 1008.9
20260509132959 56 161 1.0 7.0 0.00 0.14 0.14 90 1008.9
20260509132458 56 147 1.0 7.0 0.00 0.14 0.14 90 1008.9
20260509131959 56 140 1.0 3.0 0.00 0.14 0.14 90 1008.8
20260509131458 56 133 1.0 3.0 0.00 0.14 0.14 90 1008.8
20260509130958 56 130 1.0 4.0 0.00 0.14 0.14 90 1008.7